Time,TemperatureF,DewpointF,PressureIn,WindDirection,WindDirectionDegrees,WindSpeedMPH,WindSpeedGustMPH,Humidity,HourlyPrecipIn,Conditions,Clouds,dailyrainin,SoftwareType,DateUTC
2013-04-09 00:00:00,32.2,30.0,29.55,WSW,241,0.0,-999.0,90,-99.99,,,0.01,weatherlink.com 1.10,2013-04-09 06:00:00,
2013-04-09 00:15:00,31.9,29.0,29.55,WSW,240,0.0,-999.0,90,-99.99,,,0.02,weatherlink.com 1.10,2013-04-09 06:15:00,
2013-04-09 00:30:00,31.8,29.0,29.54,WSW,240,0.0,-999.0,90,-99.99,,,0.02,weatherlink.com 1.10,2013-04-09 06:30:00,
2013-04-09 00:45:00,31.5,29.0,29.54,WSW,242,0.0,-999.0,90,-99.99,,,0.00,weatherlink.com 1.10,2013-04-09 06:45:00,
2013-04-09 01:00:00,31.3,29.0,29.50,WSW,242,0.0,-999.0,90,-99.99,,,0.00,weatherlink.com 1.10,2013-04-09 07:00:00,
2013-04-09 01:15:00,31.0,29.0,29.49,SW,219,0.0,-999.0,90,-99.99,,,0.00,weatherlink.com 1.10,2013-04-09 07:15:00,
2013-04-09 01:30:00,30.9,28.0,29.50,SW,219,0.0,-999.0,89,-99.99,,,0.00,weatherlink.com 1.10,2013-04-09 07:30:00,
2013-04-09 01:45:00,30.6,28.0,29.49,SW,219,0.0,-999.0,88,-99.99,,,0.00,weatherlink.com 1.10,2013-04-09 07:45:00,
2013-04-09 02:00:00,30.4,27.0,29.42,SW,219,0.0,-999.0,88,-99.99,,,0.00,weatherlink.com 1.10,2013-04-09 08:00:00,
2013-04-09 02:15:00,30.4,27.0,29.45,SW,219,0.0,-999.0,88,-99.99,,,0.00,weatherlink.com 1.10,2013-04-09 08:15:00,
2013-04-09 02:30:00,30.4,27.0,29.45,SW,219,0.0,-999.0,88,-99.99,,,0.00,weatherlink.com 1.10,2013-04-09 08:30:00,
2013-04-09 02:45:00,30.6,27.0,29.43,SW,219,0.0,-999.0,87,-99.99,,,0.00,weatherlink.com 1.10,2013-04-09 08:45:00,
2013-04-09 03:00:00,30.9,28.0,29.44,SW,219,0.0,-999.0,88,-99.99,,,0.00,weatherlink.com 1.10,2013-04-09 09:00:00,
2013-04-09 03:15:00,30.7,28.0,29.43,SW,219,0.0,-999.0,88,-99.99,,,0.00,weatherlink.com 1.10,2013-04-09 09:15:00,
2013-04-09 03:30:00,30.7,28.0,29.41,SW,219,0.0,-999.0,88,-99.99,,,0.01,weatherlink.com 1.10,2013-04-09 09:30:00,
2013-04-09 03:45:00,30.3,27.0,29.39,SW,219,0.0,-999.0,87,-99.99,,,0.01,weatherlink.com 1.10,2013-04-09 09:45:00,
2013-04-09 04:00:00,29.5,26.0,29.38,SW,219,0.0,-999.0,87,-99.99,,,0.01,weatherlink.com 1.10,2013-04-09 10:00:00,
2013-04-09 04:15:00,29.7,27.0,29.38,SW,219,0.0,-999.0,88,-99.99,,,0.01,weatherlink.com 1.10,2013-04-09 10:15:00,
2013-04-09 04:30:00,29.7,27.0,29.36,SW,219,0.0,-999.0,88,-99.99,,,0.01,weatherlink.com 1.10,2013-04-09 10:30:00,
2013-04-09 04:45:00,29.7,27.0,29.35,SW,219,0.0,-999.0,88,-99.99,,,0.01,weatherlink.com 1.10,2013-04-09 10:45:00,
2013-04-09 05:00:00,30.0,27.0,29.37,SW,219,0.0,-999.0,88,-99.99,,,0.01,weatherlink.com 1.10,2013-04-09 11:00:00,
2013-04-09 05:15:00,30.1,27.0,29.36,SW,219,0.0,-999.0,88,-99.99,,,0.01,weatherlink.com 1.10,2013-04-09 11:15:00,
2013-04-09 05:30:00,30.1,27.0,29.36,SW,219,0.0,-999.0,88,-99.99,,,0.01,weatherlink.com 1.10,2013-04-09 11:30:00,
2013-04-09 05:45:00,30.1,27.0,29.34,SW,219,0.0,-999.0,88,-99.99,,,0.01,weatherlink.com 1.10,2013-04-09 11:45:00,
2013-04-09 06:00:00,30.4,27.0,29.29,SW,219,0.0,-999.0,88,-99.99,,,0.01,weatherlink.com 1.10,2013-04-09 12:00:00,
2013-04-09 06:15:00,30.4,27.0,29.30,SW,219,0.0,-999.0,88,-99.99,,,0.02,weatherlink.com 1.10,2013-04-09 12:15:00,
2013-04-09 06:30:00,30.3,28.0,29.31,SW,219,0.0,-999.0,89,-99.99,,,0.04,weatherlink.com 1.10,2013-04-09 12:30:00,
2013-04-09 06:45:00,30.6,28.0,29.31,SW,219,0.0,-999.0,89,-99.99,,,0.06,weatherlink.com 1.10,2013-04-09 12:45:00,
2013-04-09 07:00:00,30.6,28.0,29.32,SW,219,0.0,-999.0,89,-99.99,,,0.08,weatherlink.com 1.10,2013-04-09 13:00:00,
2013-04-09 07:15:00,30.6,28.0,29.32,SW,219,0.0,-999.0,89,-99.99,,,0.13,weatherlink.com 1.10,2013-04-09 13:15:00,
2013-04-09 07:30:00,30.7,28.0,29.32,SW,219,0.0,-999.0,89,-99.99,,,0.18,weatherlink.com 1.10,2013-04-09 13:30:00,
2013-04-09 07:45:00,30.6,28.0,29.34,SW,219,0.0,-999.0,89,-99.99,,,0.22,weatherlink.com 1.10,2013-04-09 13:45:00,
2013-04-09 08:00:00,30.1,27.0,29.39,SW,219,0.0,-999.0,89,-99.99,,,0.26,weatherlink.com 1.10,2013-04-09 14:00:00,
2013-04-09 08:15:00,29.8,27.0,29.39,SW,219,0.0,-999.0,89,-99.99,,,0.29,weatherlink.com 1.10,2013-04-09 14:15:00,
2013-04-09 08:30:00,29.4,27.0,29.40,SW,219,0.0,-999.0,89,-99.99,,,0.31,weatherlink.com 1.10,2013-04-09 14:30:00,
2013-04-09 08:45:00,29.7,27.0,29.40,SW,219,0.0,-999.0,89,-99.99,,,0.31,weatherlink.com 1.10,2013-04-09 14:45:00,
2013-04-09 09:00:00,30.3,28.0,29.44,SW,219,0.0,-999.0,89,-99.99,,,0.31,weatherlink.com 1.10,2013-04-09 15:00:00,
2013-04-09 09:15:00,30.7,28.0,29.41,SW,219,0.0,-999.0,88,-99.99,,,0.32,weatherlink.com 1.10,2013-04-09 15:15:00,
2013-04-09 09:30:00,30.4,27.0,29.42,SW,219,0.0,-999.0,87,-99.99,,,0.34,weatherlink.com 1.10,2013-04-09 15:30:00,
2013-04-09 09:45:00,30.9,28.0,29.42,SW,217,0.0,-999.0,87,-99.99,,,0.34,weatherlink.com 1.10,2013-04-09 15:45:00,
2013-04-09 10:01:00,29.3,25.0,29.47,West,279,0.0,-999.0,85,-99.99,,,0.35,weatherlink.com 1.10,2013-04-09 16:01:00,
2013-04-09 10:16:00,28.5,25.0,29.49,NE,35,0.0,-999.0,86,-99.99,,,0.35,weatherlink.com 1.10,2013-04-09 16:16:00,
2013-04-09 10:31:00,29.4,26.0,29.50,NE,41,0.0,-999.0,86,-99.99,,,0.35,weatherlink.com 1.10,2013-04-09 16:31:00,
2013-04-09 10:46:00,30.1,26.0,29.49,NE,49,0.0,-999.0,85,-99.99,,,0.35,weatherlink.com 1.10,2013-04-09 16:46:00,
2013-04-09 12:16:00,28.8,25.0,29.57,NNE,15,0.0,-999.0,86,-99.99,,,0.37,weatherlink.com 1.10,2013-04-09 18:16:00,
2013-04-09 12:31:00,28.4,25.0,29.57,NE,40,3.0,-999.0,85,-99.99,,,0.37,weatherlink.com 1.10,2013-04-09 18:31:00,
2013-04-09 12:46:00,28.1,25.0,29.59,NW,304,0.0,-999.0,87,-99.99,,,0.37,weatherlink.com 1.10,2013-04-09 18:46:00,
2013-04-09 13:01:00,28.2,25.0,29.61,North,10,0.0,-999.0,88,-99.99,,,0.39,weatherlink.com 1.10,2013-04-09 19:01:00,
2013-04-09 13:16:00,29.7,27.0,29.60,East,81,0.0,-999.0,88,-99.99,,,0.40,weatherlink.com 1.10,2013-04-09 19:16:00,
2013-04-09 13:31:00,30.6,26.0,29.61,NNE,28,0.0,-999.0,84,-99.99,,,0.41,weatherlink.com 1.10,2013-04-09 19:31:00,
2013-04-09 13:46:00,29.4,25.0,29.61,NE,40,1.0,-999.0,82,-99.99,,,0.41,weatherlink.com 1.10,2013-04-09 19:46:00,
2013-04-09 14:01:00,29.1,24.0,29.62,NNE,20,0.0,-999.0,82,-99.99,,,0.42,weatherlink.com 1.10,2013-04-09 20:01:00,
2013-04-09 14:16:00,29.5,24.0,29.62,NE,44,3.0,-999.0,81,-99.99,,,0.42,weatherlink.com 1.10,2013-04-09 20:16:00,
2013-04-09 14:32:00,30.6,25.0,29.63,NNE,15,0.0,-999.0,79,-99.99,,,0.42,weatherlink.com 1.10,2013-04-09 20:32:00,
2013-04-09 14:46:00,29.7,24.0,29.64,North,360,2.0,-999.0,79,-99.99,,,0.42,weatherlink.com 1.10,2013-04-09 20:46:00,
2013-04-09 15:01:00,27.9,23.0,29.66,NNE,32,0.0,-999.0,82,-99.99,,,0.42,weatherlink.com 1.10,2013-04-09 21:01:00,
2013-04-09 15:16:00,26.6,23.0,29.69,NE,38,0.0,-999.0,85,-99.99,,,0.43,weatherlink.com 1.10,2013-04-09 21:16:00,
2013-04-09 15:31:00,26.1,23.0,29.70,NNE,16,0.0,-999.0,86,-99.99,,,0.44,weatherlink.com 1.10,2013-04-09 21:31:00,
2013-04-09 15:47:00,26.7,23.0,29.70,NNE,27,0.0,-999.0,87,-99.99,,,0.46,weatherlink.com 1.10,2013-04-09 21:47:00,
2013-04-09 16:01:00,28.1,25.0,29.68,NE,40,0.0,-999.0,87,-99.99,,,0.46,weatherlink.com 1.10,2013-04-09 22:01:00,
2013-04-09 16:17:00,29.3,25.0,29.67,NNE,23,2.0,-999.0,83,-99.99,,,0.46,weatherlink.com 1.10,2013-04-09 22:17:00,
2013-04-09 16:31:00,29.0,24.0,29.68,NNE,25,0.0,-999.0,81,-99.99,,,0.46,weatherlink.com 1.10,2013-04-09 22:31:00,
2013-04-09 16:46:00,28.7,24.0,29.69,NNE,20,0.0,-999.0,82,-99.99,,,0.46,weatherlink.com 1.10,2013-04-09 22:46:00,
2013-04-09 17:01:00,28.1,24.0,29.70,NNE,24,0.0,-999.0,83,-99.99,,,0.46,weatherlink.com 1.10,2013-04-09 23:01:00,
2013-04-09 17:31:00,26.7,23.0,29.74,NE,44,0.0,-999.0,85,-99.99,,,0.47,weatherlink.com 1.10,2013-04-09 23:31:00,
2013-04-09 17:46:00,26.1,22.0,29.74,NE,45,0.0,-999.0,83,-99.99,,,0.47,weatherlink.com 1.10,2013-04-09 23:46:00,
2013-04-09 18:01:00,26.3,22.0,29.76,NE,45,0.0,-999.0,84,-99.99,,,0.47,weatherlink.com 1.10,2013-04-10 00:01:00,
2013-04-09 18:17:00,26.3,22.0,29.76,NE,45,0.0,-999.0,84,-99.99,,,0.47,weatherlink.com 1.10,2013-04-10 00:17:00,
2013-04-09 18:31:00,26.3,22.0,29.77,NE,45,0.0,-999.0,84,-99.99,,,0.47,weatherlink.com 1.10,2013-04-10 00:31:00,
2013-04-09 18:47:00,26.3,22.0,29.78,NE,45,0.0,-999.0,84,-99.99,,,0.47,weatherlink.com 1.10,2013-04-10 00:47:00,
2013-04-09 19:02:00,26.0,22.0,29.78,NE,45,0.0,-999.0,84,-99.99,,,0.47,weatherlink.com 1.10,2013-04-10 01:02:00,
2013-04-09 19:17:00,25.7,22.0,29.79,NE,45,0.0,-999.0,84,-99.99,,,0.48,weatherlink.com 1.10,2013-04-10 01:17:00,
2013-04-09 19:32:00,25.6,22.0,29.79,NE,45,0.0,-999.0,85,-99.99,,,0.48,weatherlink.com 1.10,2013-04-10 01:32:00,
2013-04-09 19:47:00,25.3,21.0,29.80,NE,45,0.0,-999.0,85,-99.99,,,0.48,weatherlink.com 1.10,2013-04-10 01:47:00,
2013-04-09 20:02:00,25.1,22.0,29.82,NE,45,0.0,-999.0,86,-99.99,,,0.48,weatherlink.com 1.10,2013-04-10 02:02:00,
2013-04-09 20:17:00,25.1,22.0,29.83,NE,45,0.0,-999.0,86,-99.99,,,0.48,weatherlink.com 1.10,2013-04-10 02:17:00,
2013-04-09 20:32:00,25.3,22.0,29.84,NE,45,0.0,-999.0,86,-99.99,,,0.49,weatherlink.com 1.10,2013-04-10 02:32:00,
2013-04-09 20:47:00,25.1,22.0,29.84,NE,45,0.0,-999.0,86,-99.99,,,0.49,weatherlink.com 1.10,2013-04-10 02:47:00,
2013-04-09 21:02:00,25.1,22.0,29.83,NE,45,0.0,-999.0,86,-99.99,,,0.50,weatherlink.com 1.10,2013-04-10 03:02:00,
2013-04-09 21:17:00,25.1,22.0,29.85,NE,45,0.0,-999.0,86,-99.99,,,0.50,weatherlink.com 1.10,2013-04-10 03:17:00,
2013-04-09 21:32:00,24.8,21.0,29.85,NE,45,0.0,-999.0,85,-99.99,,,0.50,weatherlink.com 1.10,2013-04-10 03:32:00,
2013-04-09 21:47:00,24.4,21.0,29.86,NE,45,0.0,-999.0,85,-99.99,,,0.50,weatherlink.com 1.10,2013-04-10 03:47:00,
2013-04-09 22:02:00,23.6,20.0,29.89,NE,45,0.0,-999.0,84,-99.99,,,0.50,weatherlink.com 1.10,2013-04-10 04:02:00,
2013-04-09 22:17:00,23.0,19.0,29.93,NE,45,0.0,-999.0,84,-99.99,,,0.50,weatherlink.com 1.10,2013-04-10 04:17:00,
2013-04-09 22:32:00,22.5,19.0,29.93,NE,45,0.0,-999.0,85,-99.99,,,0.50,weatherlink.com 1.10,2013-04-10 04:32:00,
2013-04-09 22:47:00,22.7,19.0,29.93,NE,45,0.0,-999.0,85,-99.99,,,0.50,weatherlink.com 1.10,2013-04-10 04:47:00,
2013-04-09 23:02:00,23.0,19.0,29.95,NE,45,0.0,-999.0,84,-99.99,,,0.50,weatherlink.com 1.10,2013-04-10 05:02:00,
2013-04-09 23:17:00,23.3,19.0,29.95,NE,45,0.0,-999.0,82,-99.99,,,0.50,weatherlink.com 1.10,2013-04-10 05:17:00,
2013-04-09 23:32:00,22.9,18.0,29.95,NE,45,0.0,-999.0,82,-99.99,,,0.50,weatherlink.com 1.10,2013-04-10 05:32:00,
2013-04-09 23:47:00,23.0,19.0,29.95,NE,45,0.0,-999.0,84,-99.99,,,0.50,weatherlink.com 1.10,2013-04-10 05:47:00,